Flag for Canada Weather past 2 weeks in Saint-Jérôme, Quebec, Canada

Now
55 °F

Scattered clouds.


Feels Like: 53 °F
Forecast: 47 / 66 °F
Wind: 8 mph from Northeast

Location: Montreal / Mirabel

Current Time: Oct 2, 2014 at 10:57:31 AM

Latest Report: Oct 2, 2014 at 10:00 AM


Visibility: 20 mi

Pressure: 30.22 "Hg

Humidity: 77%

Dew point: 48 °F

Location of Saint-JérômeLocation

Historic Weather in Saint-Jérôme — Graph

°F

Saint-Jérôme temperature yesterday

Maximum temperature yesterday: 61 °F (at 3:00 PM)
Minimum temperature yesterday: 52 °F (at 12:00 AM)
Average temperature yesterday: 55 °F

Past Weeks' High & Low Weather Summary

 TemperatureHumidityPressure
High81 °F (Sep 27, 4:00 PM)100% (Sep 23, 10:00 PM)30.60 "Hg (Sep 23, 10:00 PM)
Low30 °F (Sep 19, 7:00 AM)33% (Sep 19, 4:00 PM)29.49 "Hg (Sep 22, 12:00 AM)
Average55 °F80%30.12 "Hg
* Reported Sep 17 9:00 AM — Oct 2 9:00 AM, Saint-Jérôme, Weather by CustomWeather, © 2014

Note: Actual official high and low records may vary slightly from our data, if they occured in-between our weather recording intervals... More about our weather records

Advertising

Saint-Jérôme weather history for previous 24 hours

 ConditionsComfort  
Time TempWeatherWind HumidityBarometerVisibility
9:00 AM
Oct 2
52 °FPartly sunny.8 mph82%30.23 "Hg20 mi
8:00 AM50 °FPartly sunny.7 mph82%30.23 "Hg30 mi
7:00 AM48 °FPassing clouds.3 mph87%30.22 "Hg25 mi
6:00 AM46 °FPassing clouds.3 mph93%30.20 "Hg25 mi
5:00 AM48 °FClear.5 mph94%30.19 "Hg25 mi
4:00 AM48 °FClear.2 mph87%30.17 "Hg15 mi
3:00 AM50 °FClear.5 mph88%30.18 "Hg15 mi
2:00 AM50 °FClear.3 mph94%30.19 "Hg15 mi
1:00 AM52 °FPassing clouds.5 mph88%30.18 "Hg15 mi
12:00 AM50 °FPassing clouds.2 mph94%30.18 "Hg15 mi
11:00 PM
Oct 1
52 °FPassing clouds.3 mph88%30.19 "Hg15 mi
10:00 PM52 °FPassing clouds.2 mph94%30.21 "Hg15 mi
9:00 PM54 °FClear.3 mph88%30.19 "Hg15 mi
8:00 PM55 °FPassing clouds.2 mph82%30.19 "Hg12 mi
7:00 PM57 °FPassing clouds.3 mph77%30.17 "Hg12 mi
6:00 PM59 °FPassing clouds.7 mph72%30.16 "Hg15 mi
5:00 PM61 °FPassing clouds.6 mph72%30.16 "Hg15 mi
4:00 PM61 °FScattered clouds.7 mph72%30.15 "Hg15 mi
3:00 PM61 °FScattered clouds.8 mph72%30.16 "Hg15 mi
2:00 PM59 °FScattered clouds.10 mph72%30.15 "Hg15 mi
1:00 PM59 °FPartly sunny.9 mph72%30.18 "Hg15 mi
12:00 PM57 °FPartly sunny.7 mph77%30.19 "Hg15 mi
11:00 AM55 °FOvercast.8 mph77%30.20 "Hg20 mi
10:00 AM54 °FOvercast.8 mph82%30.20 "Hg20 mi
Weather by CustomWeather, © 2014

See weather overviewHow to use our weather pages